Waarnemingen

Advertentie
Mijn weer
Vinga, Zweden (2516): temperatuur & dauwpunt: 28.07.2020 13:00:00 - 03.08.2020 13:00:00 (CEST)Vinga, Zweden (2516): windsnelheid & windstoten: 28.07.2020 13:00:00 - 03.08.2020 13:00:00 (CEST)Vinga, Zweden (2516): windrichting: 28.07.2020 13:00:00 - 03.08.2020 13:00:00 (CEST)Vinga, Zweden (2516): luchtdruk: 28.07.2020 13:00:00 - 03.08.2020 13:00:00 (CEST)Vinga, Zweden (2516): zicht: 28.07.2020 13:00:00 - 03.08.2020 13:00:00 (CEST)Vinga, Zweden (2516): neerslag: 28.07.2020 13:00:00 - 03.08.2020 13:00:00 (CEST)
Datum & Tijd tt [°C] td [°C] ff [km/u] ff [kn] fx [km/u] fx [kn] dd ppp [hPa] vv [km] rr [mm]
03.08.2020 13:00:00 17,8 11,3 22 12 36 19 W 1009,8 27 0,0
03.08.2020 12:00:00 17,0 11,1 26 14 39 21 W 1009,6 23 0,0
03.08.2020 11:00:00 16,8 11,5 25 14 37 20 W 1009,5 24 0,0
03.08.2020 10:00:00 16,4 10,9 24 13 36 20 W 1009,3 29 0,0
03.08.2020 09:00:00 15,7 11,7 22 12 38 21 W 1009,3 18 0,0
03.08.2020 08:00:00 15,2 11,8 26 14 38 20 W 1009,0 14 0,0
03.08.2020 07:00:00 14,8 11,6 27 15 42 23 WZW 1009,0 16 0,0
03.08.2020 06:00:00 14,8 11,8 30 16 42 23 WZW 1008,9 16 0,0
03.08.2020 05:00:00 14,5 11,8 35 19 48 26 WZW 1008,7 14 0,0
03.08.2020 04:00:00 14,6 11,7 35 19 47 25 WZW 1008,6 14 0,0
03.08.2020 03:00:00 14,7 11,5 34 19 45 24 WZW 1008,9 15 0,0
03.08.2020 02:00:00 14,9 11,7 31 17 42 23 WZW 1009,1 15 0,0
03.08.2020 01:00:00 15,0 11,0 30 16 40 22 W 1009,2 15 0,0
03.08.2020 00:00:00 14,9 11,1 26 14 40 22 WZW 1009,3 15 0,0
02.08.2020 23:00:00 15,1 11,1 28 15 39 21 WZW 1009,3 17 0,0
02.08.2020 22:00:00 15,7 11,9 22 12 32 17 W 1009,2 18 0,0
02.08.2020 21:00:00 16,7 13,4 24 13 31 17 WZW 1008,9 20 0,0
02.08.2020 20:00:00 17,3 12,8 20 11 25 13 WZW 1008,7 24 0,0
02.08.2020 19:00:00 17,1 12,8 16 9 25 14 W 1009,0 20 0,0
02.08.2020 18:00:00 18,3 13,8 16 9 26 14 WZW 1009,3 25 0,0
02.08.2020 17:00:00 17,6 14,3 21 11 24 13 ZZW 1009,2 29 0,0
02.08.2020 16:00:00 16,9 13,6 16 9 25 13 ZZW 1009,3 22 0,0
02.08.2020 15:00:00 17,1 13,4 18 10 29 15 ZW 1009,6 25 0,0
02.08.2020 14:00:00 16,1 13,4 24 13 32 18 WZW 1009,4 20 0,0
02.08.2020 13:00:00 16,5 13,6 21 11 30 16 WZW 1009,4 39 0,0
02.08.2020 12:00:00 16,3 13,8 19 10 32 17 WZW 1009,4 31 0,0
02.08.2020 11:00:00 16,1 14,1 19 11 29 16 W 1009,1 45 0,0
02.08.2020 10:00:00 16,0 15,0 17 9 28 15 W 1008,8 20 0,0
02.08.2020 09:00:00 16,6 15,5 17 9 26 14 W 1008,6 3,8 0,0
02.08.2020 08:00:00 17,2 15,5 23 12 35 19 ZZW 1008,6 9 0,0
02.08.2020 07:00:00 17,6 15,2 31 17 39 21 Z 1008,6 15 0,0
02.08.2020 06:00:00 17,7 14,6 35 19 42 23 ZZO 1008,8 22 0,0
02.08.2020 05:00:00 17,8 14,5 32 17 42 23 ZZO 1009,3 23 0,0
02.08.2020 04:00:00 18,2 14,3 30 16 37 20 ZZO 1009,9 29 0,0
02.08.2020 03:00:00 18,4 14,5 29 15 36 19 ZZO 1010,5 31 0,0
02.08.2020 02:00:00 18,7 14,6 28 15 34 18 ZZO 1011,1 43 0,0
02.08.2020 01:00:00 18,5 15,0 29 16 34 18 ZZO 1011,6 43 0,0
02.08.2020 00:00:00 18,7 15,0 25 14 32 17 ZZO 1012,2 42 0,0
01.08.2020 23:00:00 19,2 14,2 25 13 31 17 ZZO 1012,5 50 0,0
01.08.2020 22:00:00 19,3 14,5 19 10 28 15 ZO 1013,1 50 0,0
01.08.2020 21:00:00 19,1 15,2 19 10 23 12 ZO 1013,6 50 0,0
01.08.2020 20:00:00 19,7 14,7 17 9 20 11 ZZO 1014,2 48 0,0
01.08.2020 19:00:00 19,7 14,7 14 8 18 10 ZZO 1014,7 48 0,0
01.08.2020 18:00:00 20,0 14,4 10 6 16 9 ZZO 1015,1 50 0,0
01.08.2020 17:00:00 19,8 14,6 11 6 13 7 ZO 1015,6 37 0,0
01.08.2020 16:00:00 19,6 14,6 9 5 11 6 Z 1016,0 35 0,0
01.08.2020 15:00:00 19,3 14,1 9 5 13 7 Z 1016,6 29 0,0
01.08.2020 14:00:00 19,1 14,8 11 6 15 8 Z 1017,1 34 0,0
01.08.2020 13:00:00 19,1 15,2 10 6 16 9 ZO 1017,3 36 0,0
01.08.2020 12:00:00 18,2 14,9 12 7 17 9 ZZO 1017,9 34 0,0
01.08.2020 11:00:00 17,9 15,7 16 9 18 10 Z 1018,2 22 0,0
01.08.2020 10:00:00 17,2 16,2 15 8 23 12 ZZO 1017,8 13 0,0
01.08.2020 09:00:00 16,1 15,1 19 11 24 13 ZZO 1017,7 0,7 0,0
01.08.2020 08:00:00 16,0 14,2 16 9 20 11 ZO 1017,8 35 0,0
01.08.2020 07:00:00 15,8 12,9 14 8 18 10 ZO 1017,9 50 0,0
01.08.2020 06:00:00 15,9 12,6 11 6 15 8 O 1017,9 50 0,0
01.08.2020 05:00:00 15,8 13,5 10 5 13 7 O 1018,0 50 0,0
01.08.2020 04:00:00 15,8 14,0 8 5 12 6 ONO 1018,1 50 0,0
01.08.2020 03:00:00 16,2 14,4 7 4 11 6 ONO 1018,4 50 0,0
01.08.2020 02:00:00 16,8 14,6 9 5 15 8 ONO 1018,5 50 0,0
01.08.2020 01:00:00 16,9 14,5 7 4 10 5 NO 1018,6 50 0,0
01.08.2020 00:00:00 17,3 14,6 6 4 11 6 NNO 1018,6 50 0,0
31.07.2020 23:00:00 17,6 15,2 8 4 13 7 N 1018,6 50 0,0
31.07.2020 22:00:00 17,6 15,0 9 5 19 10 N 1018,5 50 0,0
31.07.2020 21:00:00 17,8 14,7 13 7 21 11 N 1018,3 50 0,0
31.07.2020 20:00:00 18,2 14,3 14 8 22 12 NNW 1018,3 45 0,0
31.07.2020 19:00:00 18,5 14,4 14 8 25 14 N 1018,2 50 0,0
31.07.2020 18:00:00 19,0 14,0 19 10 27 15 NNW 1018,4 39 0,0
31.07.2020 17:00:00 19,1 14,4 19 11 25 14 NW 1018,2 40 0,0
31.07.2020 16:00:00 19,5 14,9 19 11 24 13 NW 1018,1 37 0,0
31.07.2020 15:00:00 19,6 14,6 18 10 25 13 NW 1018,1 37 0,0
31.07.2020 14:00:00 19,2 14,5 18 10 23 12 NW 1017,9 38 0,0
31.07.2020 13:00:00 19,0 15,1 17 9 23 12 NW 1017,7 36 0,0
31.07.2020 12:00:00 19,0 14,7 16 8 21 11 NW 1017,5 32 0,0
31.07.2020 11:00:00 18,7 14,4 14 8 20 11 NW 1017,2 37 0,0
31.07.2020 10:00:00 18,2 14,1 11 6 17 9 N 1016,7 38 0,0
31.07.2020 09:00:00 17,6 13,7 11 6 22 12 N 1016,2 37 0,0
31.07.2020 08:00:00 17,3 14,6 18 10 27 15 NNW 1015,7 26 0,0
31.07.2020 07:00:00 16,4 14,2 22 12 38 20 NW 1015,1 16 0,0
31.07.2020 06:00:00 15,9 13,9 32 17 44 24 WNW 1014,4 12 0,0
31.07.2020 05:00:00 15,5 13,7 34 18 48 26 WNW 1014,0 12 0,0
31.07.2020 04:00:00 15,4 13,6 31 17 51 28 W 1013,7 11 0,0
31.07.2020 03:00:00 15,3 13,5 35 19 51 27 W 1013,6 11 0,0
31.07.2020 02:00:00 15,2 13,6 37 20 54 29 W 1013,5 11 0,0
31.07.2020 01:00:00 15,1 13,1 36 20 54 29 W 1013,4 11 0,0
31.07.2020 00:00:00 15,1 13,0 39 21 57 31 W 1013,3 12 0,0
30.07.2020 23:00:00 15,2 12,9 41 22 62 34 W 1012,9 12 0,0
30.07.2020 22:00:00 15,1 12,6 40 22 59 32 W 1013,0 11 0,0
30.07.2020 21:00:00 15,4 12,5 43 23 64 34 W 1012,9 13 0,0
30.07.2020 20:00:00 15,3 12,2 40 22 58 31 W 1012,7 14 0,0
30.07.2020 19:00:00 15,3 11,9 41 22 61 33 W 1012,9 14 0,0
30.07.2020 18:00:00 15,5 12,4 40 22 58 31 W 1013,2 13 0,0
30.07.2020 17:00:00 15,9 12,5 38 21 59 32 W 1013,1 14 0,0
30.07.2020 16:00:00 16,2 12,7 39 21 60 33 W 1013,1 14 0,0
30.07.2020 15:00:00 16,0 12,2 40 22 61 33 W 1013,1 15 0,0
30.07.2020 14:00:00 16,4 12,2 41 22 62 33 W 1012,7 14 0,0
30.07.2020 13:00:00 16,7 12,2 41 22 61 33 W 1012,5 17 0,0
30.07.2020 12:00:00 16,3 12,1 41 22 58 32 W 1012,1 13 0,0
30.07.2020 11:00:00 16,0 12,0 44 24 61 33 W 1011,4 15 0,0
30.07.2020 10:00:00 15,6 11,8 39 21 58 31 W 1011,0 13 0,0
30.07.2020 09:00:00 15,2 11,6 41 22 61 33 W 1010,5 12 0,0
30.07.2020 08:00:00 15,2 11,4 40 22 60 33 W 1010,0 13 0,0
30.07.2020 07:00:00 15,0 11,8 45 24 68 37 W 1009,3 13 0,0
30.07.2020 06:00:00 14,8 11,2 46 25 65 35 W 1008,9 14 0,0
30.07.2020 05:00:00 15,0 11,6 46 25 67 36 W 1008,4 13 0,0
30.07.2020 04:00:00 15,2 12,0 43 23 67 36 W 1008,2 12 0,0
30.07.2020 03:00:00 15,3 12,4 40 21 59 32 W 1007,9 13 0,0
30.07.2020 02:00:00 15,0 12,0 42 23 61 33 W 1007,9 13 0,0
30.07.2020 01:00:00 14,8 11,9 42 23 59 32 W 1007,5 12 0,0
30.07.2020 00:00:00 14,5 11,5 45 25 69 37 WZW 1007,5 13 0,0
29.07.2020 23:00:00 14,5 11,6 47 26 63 34 WZW 1007,6 12 0,0
29.07.2020 22:00:00 14,6 11,4 45 24 67 36 W 1007,4 11 0,0
29.07.2020 21:00:00 14,7 12,2 47 26 74 40 WZW 1006,9 12 0,0
29.07.2020 20:00:00 15,3 12,1 53 29 70 38 WZW 1006,6 13 0,0
29.07.2020 19:00:00 16,0 12,2 48 26 70 38 WZW 1006,2 12 0,0
29.07.2020 18:00:00 16,3 12,5 51 28 68 37 WZW 1005,6 12 0,0
29.07.2020 17:00:00 16,4 12,2 51 28 71 38 WZW 1005,2 12 0,0
29.07.2020 16:00:00 16,8 12,1 46 25 64 34 WZW 1004,8 12 0,0
29.07.2020 15:00:00 16,8 12,9 49 26 61 33 WZW 1004,2 10 0,0
29.07.2020 14:00:00 15,8 13,6 48 26 67 36 ZW 1003,6 10 0,4
29.07.2020 13:00:00 14,8 12,7 55 30 70 38 ZW 1003,5 3,2 0,1
29.07.2020 12:00:00 15,0 11,8 53 29 73 39 ZW 1003,3 11 0,0
29.07.2020 11:00:00 14,9 11,3 51 27 63 34 ZW 1003,6 12 0,2
29.07.2020 10:00:00 14,6 11,2 49 26 60 33 ZZW 1003,7 8 0,0
29.07.2020 09:00:00 14,8 11,4 53 29 68 37 ZW 1003,6 10 0,0
29.07.2020 08:00:00 14,7 10,9 49 27 61 33 ZW 1003,6 11 0,0
29.07.2020 07:00:00 14,6 11,2 48 26 60 32 ZW 1003,6 11 0,0
29.07.2020 06:00:00 14,6 11,2 46 25 58 31 ZW 1003,7 12 0,1
29.07.2020 05:00:00 14,0 11,3 43 23 58 31 ZW 1004,0 6 0,1
29.07.2020 04:00:00 14,7 11,1 46 25 58 32 ZW 1004,0 14 0,0
29.07.2020 03:00:00 14,9 10,7 49 27 59 32 ZW 1004,1 16 0,1
29.07.2020 02:00:00 15,0 10,8 40 22 52 28 ZW 1004,6 13 0,0
29.07.2020 01:00:00 14,9 10,7 43 23 57 31 ZW 1004,6 16 0,0
29.07.2020 00:00:00 15,0 10,4 44 24 54 29 ZW 1004,5 18 0,0
28.07.2020 23:00:00 15,4 11,0 36 19 50 27 WZW 1004,5 20 0,0
28.07.2020 22:00:00 16,0 10,7 35 19 48 26 WZW 1004,4 20 0,0
28.07.2020 21:00:00 16,5 10,4 28 15 41 22 WZW 1004,3 19 0,0
28.07.2020 20:00:00 17,1 11,8 29 16 36 19 ZW 1004,0 24 0,0
28.07.2020 19:00:00 17,2 11,7 26 14 34 19 ZW 1004,1 23 0,0
28.07.2020 18:00:00 17,5 12,0 27 15 45 24 ZW 1003,8 24 0,0
28.07.2020 17:00:00 18,0 12,0 23 13 32 18 ZZW 1003,6 21 0,0
28.07.2020 16:00:00 17,9 11,5 30 16 39 21 ZW 1003,4 25 0,0
28.07.2020 15:00:00 17,4 12,5 31 17 41 22 WZW 1002,9 26 0,0
28.07.2020 14:00:00 16,8 13,7 21 11 30 16 WZW 1002,3 19 0,0
28.07.2020 13:00:00 16,0 14,2 21 11 54 29 W 1001,5 17 1,1

tt = temperatuur
td = dauwpunt
ff = windsnelheid
fx = windstoten
dd = windrichting
ppp = luchtdruk
vv = zicht
rr = neerslag

Weerstations in de omgeving